2023/02/05 00:00:00,51.7,-1.2
2023/02/05 00:10:00,51.8,-1.5
2023/02/05 00:20:00,51.8,-1.7
2023/02/05 00:30:00,51.8,-1.9
2023/02/05 00:40:00,51.8,-1.4
2023/02/05 00:50:00,51.7,-1.4
2023/02/05 01:00:00,51.7,-1.3
2023/02/05 01:10:00,51.7,-1.4
2023/02/05 01:20:00,51.7,-1.3
2023/02/05 01:30:00,51.7,-1.4
2023/02/05 01:40:00,51.7,-1.6
2023/02/05 01:50:00,51.7,-1.6
2023/02/05 02:00:00,51.6,-2.0
2023/02/05 02:10:00,51.6,-1.9
2023/02/05 02:20:00,51.6,-1.5
2023/02/05 02:30:00,51.5,-1.3
2023/02/05 02:40:00,51.5,-1.8
2023/02/05 02:50:00,51.4,-1.4
2023/02/05 03:00:00,51.4,-1.3
2023/02/05 03:10:00,51.4,-1.3
2023/02/05 03:20:00,51.5,-1.3
2023/02/05 03:30:00,51.4,-1.9
2023/02/05 03:40:00,51.3,-1.9
2023/02/05 03:50:00,51.4,-2.1
2023/02/05 04:00:00,51.3,-1.9
2023/02/05 04:10:00,51.3,-1.5
2023/02/05 04:20:00,51.3,-1.5
2023/02/05 04:30:00,51.2,-1.5
2023/02/05 04:40:00,51.2,-1.8
2023/02/05 04:50:00,51.3,-2.1
2023/02/05 05:00:00,51.2,-2.7
2023/02/05 05:10:00,51.2,-2.9
2023/02/05 05:20:00,51.2,-3.2
2023/02/05 05:30:00,51.1,-3.4
2023/02/05 05:40:00,51.2,-3.5
2023/02/05 05:50:00,51.2,-3.2
2023/02/05 06:00:00,51.2,-3.3
2023/02/05 06:10:00,51.2,-2.9
2023/02/05 06:20:00,51.1,-3.1
2023/02/05 06:30:00,51.1,-2.8
2023/02/05 06:40:00,51.1,-2.7
2023/02/05 06:50:00,51.1,-2.4
2023/02/05 07:00:00,51.0,-2.0
2023/02/05 07:10:00,51.0,-1.7
2023/02/05 07:20:00,51.1,-1.9
2023/02/05 07:30:00,51.0,-1.5
2023/02/05 07:40:00,50.9,-1.5
2023/02/05 07:50:00,50.9,-1.2
2023/02/05 08:00:00,50.8,-1.1
2023/02/05 08:10:00,50.7,-0.1
2023/02/05 08:20:00,50.7, 0.2
2023/02/05 08:30:00,50.7, 1.1
2023/02/05 08:40:00,50.5, 2.1
2023/02/05 08:50:00,50.5, 0.9
2023/02/05 09:00:00,50.1, 3.6
2023/02/05 09:10:00,50.0, 5.0
2023/02/05 09:20:00,49.8, 6.2
2023/02/05 09:30:00,49.7, 5.1
2023/02/05 09:40:00,49.6, 5.0
2023/02/05 09:50:00,49.6, 5.0
2023/02/05 10:00:00,49.6, 6.5
2023/02/05 10:10:00,49.4, 6.7
2023/02/05 10:20:00,49.4, 8.6
2023/02/05 10:30:00,49.2, 8.9
2023/02/05 10:40:00,49.0, 8.1
2023/02/05 10:50:00,49.0, 8.4
2023/02/05 11:00:00,48.9,10.2
2023/02/05 11:10:00,48.9, 8.9
2023/02/05 11:20:00,48.8,11.9
2023/02/05 11:30:00,48.6, 9.1
2023/02/05 11:40:00,48.5, 7.5
2023/02/05 11:50:00,48.6, 9.3
2023/02/05 12:00:00,48.5, 8.9
2023/02/05 12:10:00,48.3, 8.0
2023/02/05 12:20:00,48.2, 6.6
2023/02/05 12:30:00,48.3, 7.9
2023/02/05 12:40:00,47.9, 7.0
2023/02/05 12:50:00,47.9, 7.4
2023/02/05 13:00:00,47.6, 7.5
2023/02/05 13:10:00,47.7, 8.6
2023/02/05 13:20:00,47.5, 8.1
2023/02/05 13:30:00,47.4, 7.8
2023/02/05 13:40:00,47.3, 7.9
2023/02/05 13:50:00,47.2, 8.1
2023/02/05 14:00:00,46.8, 7.9
2023/02/05 14:10:00,46.3, 8.2
2023/02/05 14:20:00,46.0, 7.0
2023/02/05 14:30:00,46.0, 7.0
2023/02/05 14:40:00,45.7, 7.3
2023/02/05 14:50:00,46.0, 6.9
2023/02/05 15:00:00,45.7, 6.8
2023/02/05 15:10:00,45.4, 7.1
2023/02/05 15:20:00,45.4, 7.0
2023/02/05 15:30:00,45.3, 8.1
2023/02/05 15:40:00,45.4, 7.5
2023/02/05 15:50:00,45.3, 7.6
2023/02/05 16:00:00,45.2, 7.7
2023/02/05 16:10:00,45.3, 7.4
2023/02/05 16:20:00,45.5, 7.0
2023/02/05 16:30:00,45.3, 6.3
2023/02/05 16:40:00,45.4, 6.0
2023/02/05 16:50:00,45.6, 5.3
2023/02/05 17:00:00,45.7, 5.0
2023/02/05 17:10:00,46.0, 4.2
2023/02/05 17:20:00,46.1, 2.8
2023/02/05 17:30:00,46.4, 1.9
2023/02/05 17:40:00,46.5, 1.5
2023/02/05 17:50:00,46.4, 0.5
2023/02/05 18:00:00,46.5, 0.0
2023/02/05 18:10:00,46.4, 0.0
2023/02/05 18:20:00,46.4,-0.2
2023/02/05 18:30:00,46.4,-0.5
2023/02/05 18:40:00,46.3,-0.9
2023/02/05 18:50:00,46.3,-1.0
2023/02/05 19:00:00,46.5,-1.0
2023/02/05 19:10:00,46.4,-1.2
2023/02/05 19:20:00,46.4,-1.1
2023/02/05 19:30:00,46.5,-1.2
2023/02/05 19:40:00,46.5,-1.3
2023/02/05 19:50:00,46.4,-1.1
2023/02/05 20:00:00,46.6,-1.1
2023/02/05 20:10:00,46.6,-1.2
2023/02/05 20:20:00,46.6,-1.4
2023/02/05 20:30:00,46.8,-1.5
2023/02/05 20:40:00,46.6,-1.7
2023/02/05 20:50:00,46.6,-1.6
2023/02/05 21:00:00,46.7,-1.6
2023/02/05 21:10:00,46.7,-1.7
2023/02/05 21:20:00,46.8,-1.8
2023/02/05 21:30:00,46.6,-1.7
2023/02/05 21:40:00,46.5,-1.8
2023/02/05 21:50:00,46.5,-2.1
2023/02/05 22:00:00,46.5,-2.0
2023/02/05 22:10:00,46.4,-1.9
2023/02/05 22:20:00,46.4,-2.1
2023/02/05 22:30:00,46.4,-1.7
2023/02/05 22:40:00,46.4,-1.5
2023/02/05 22:50:00,46.4,-0.9
2023/02/05 23:00:00,46.5,-0.9
2023/02/05 23:10:00,46.3,-1.3
2023/02/05 23:20:00,46.2,-1.2
2023/02/05 23:30:00,46.3,-1.3
2023/02/05 23:40:00,46.2,-1.4
2023/02/05 23:50:00,46.1,-1.2
